1500588000.75,35364,23.13,74278.5,6.49,-18.21,-18.59,0,*7E
1500588001.98,35365,23.13,74276.8,6.49,-18.31,-18.79,0,*7C
1500588003.18,35366,23.13,74278.5,6.49,-18.17,-18.65,0,*76
1500588004.42,35367,23.13,74276.5,6.47,-18.11,-18.55,0,*7C
1500588005.7,35368,23.13,74276.0,6.47,-17.97,-18.55,0,*72
1500588006.92,35369,23.13,74280.5,6.47,-18.11,-18.49,0,*7F
1500588008.17,35370,23.13,74276.5,6.49,-17.93,-18.31,0,*73
1500588009.37,35371,23.13,74274.8,6.49,-18.07,-18.49,0,*7F
1500588010.6,35372,23.13,74276.8,6.47,-18.11,-18.65,0,*7B
1500588011.82,35373,23.13,74276.8,6.47,-18.21,-18.65,0,*79
1500588013.04,35374,23.13,74280.5,6.49,-18.07,-18.59,0,*7B
1500588014.26,35375,23.13,74278.8,6.51,-17.69,-18.17,0,*7E
1500588015.48,35376,23.13,74278.0,6.49,-18.01,-18.49,0,*7E
1500588016.68,35377,23.13,74280.5,6.49,-18.07,-18.49,0,*79
1500588017.88,35378,23.13,74278.0,6.49,-18.17,-18.49,0,*77
1500588019.1,35379,23.13,74278.8,6.49,-18.17,-18.59,0,*77
1500588020.3,35380,23.13,74278.8,6.49,-18.07,-18.49,0,*71
1500588021.5,35381,23.13,74278.8,6.49,-18.07,-18.49,0,*70
1500588022.75,35382,23.13,74276.3,6.49,-17.93,-18.35,0,*7A
1500588023.98,35383,23.13,74276.8,6.49,-17.93,-18.45,0,*7C
1500588025.23,35384,23.13,74278.0,6.49,-17.93,-18.35,0,*7C
1500588026.48,35385,23.13,74282.0,6.49,-17.93,-18.35,0,*7D
1500588027.73,35386,23.13,74278.5,6.51,-17.97,-18.41,0,*70
1500588028.99,35387,23.13,74276.0,6.51,-17.97,-18.41,0,*71
1500588030.24,35388,23.13,74274.8,6.51,-18.01,-18.45,0,*7A
1500588031.49,35389,23.13,74272.5,6.51,-18.17,-18.55,0,*7D
1500588032.74,35390,23.13,74274.3,6.51,-18.11,-18.55,0,*73
1500588033.93,35391,23.13,74276.8,6.49,-18.17,-18.49,0,*70
1500588035.21,35392,23.13,74278.5,6.51,-18.01,-18.55,0,*70
1500588036.47,35393,23.13,74278.5,6.51,-17.97,-18.45,0,*70
1500588037.75,35394,23.13,74278.5,6.51,-17.97,-18.31,0,*74
1500588038.98,35395,23.13,74278.5,6.51,-17.83,-18.17,0,*74
1500588040.23,35396,23.13,74278.8,6.51,-17.97,-18.41,0,*71
1500588041.46,35397,23.13,74272.8,6.51,-18.11,-18.45,0,*75
1500588042.71,35398,23.13,74276.0,6.51,-17.97,-18.45,0,*7B
1500588044.0,35399,23.13,74276.8,6.51,-17.97,-18.31,0,*79
1500588045.22,35400,23.13,74272.8,6.51,-18.11,-18.45,0,*7C
1500588046.47,35401,23.13,74274.0,6.51,-18.11,-18.55,0,*7C
1500588047.72,35402,23.13,74276.3,6.51,-18.01,-18.45,0,*7F
1500588048.97,35403,23.13,74272.5,6.53,-18.01,-18.45,0,*7C
1500588050.22,35404,23.13,74278.3,6.53,-18.11,-18.55,0,*7B
1500588051.46,35405,23.13,74276.3,6.53,-18.17,-18.55,0,*7C
1500588052.73,35406,23.13,74276.3,6.53,-18.31,-18.59,0,*77
1500588053.98,35407,23.13,74278.8,6.51,-18.17,-18.55,0,*7C
1500588055.21,35408,23.13,74280.3,6.51,-18.25,-18.65,0,*71
1500588056.46,35409,23.13,74274.0,6.51,-18.31,-18.65,0,*75
1500588057.69,35410,23.13,74276.0,6.51,-18.17,-18.65,0,*79
1500588058.94,35411,23.13,74276.8,6.51,-18.25,-18.55,0,*7A
1500588060.19,35412,23.13,74278.0,6.51,-18.01,-18.41,0,*7A
1500588061.43,35413,23.13,74282.3,6.51,-18.11,-18.55,0,*7F
1500588062.68,35414,23.13,74276.8,6.51,-18.01,-18.41,0,*7C
1500588063.94,35415,23.13,74276.3,6.53,-17.97,-18.45,0,*7B
1500588065.18,35416,23.13,74278.8,6.53,-18.17,-18.55,0,*7E
1500588066.41,35417,23.13,74282.3,6.53,-18.41,-18.65,0,*7F
1500588067.66,35418,23.13,74278.8,6.51,-18.55,-18.79,0,*7A
1500588068.91,35419,23.13,74276.8,6.51,-18.31,-18.79,0,*79
1500588070.15,35420,23.13,74282.3,6.51,-18.55,-18.79,0,*71
1500588071.37,35421,23.13,74278.5,6.51,-18.45,-18.79,0,*71
1500588072.64,35422,23.13,74282.3,6.51,-18.55,-18.89,0,*7C
1500588073.89,35423,23.13,74274.5,6.51,-18.55,-18.79,0,*72
1500588075.13,35424,23.13,74278.5,6.51,-18.25,-18.59,0,*70
1500588076.4,35425,23.13,74276.3,6.51,-18.31,-18.59,0,*74
1500588077.65,35426,23.13,74278.5,6.51,-18.01,-18.41,0,*7D
1500588078.9,35427,23.13,74282.3,6.51,-18.25,-18.55,0,*7F
1500588080.17,35428,23.13,74280.3,6.51,-18.31,-18.59,0,*79
1500588081.42,35429,23.13,74278.5,6.51,-18.25,-18.55,0,*71
1500588082.65,35430,23.13,74280.3,6.51,-18.11,-18.45,0,*7F
1500588083.9,35431,23.13,74282.0,6.51,-18.31,-18.65,0,*7E
1500588085.13,35432,23.13,74274.8,6.51,-18.25,-18.65,0,*78
1500588086.36,35433,23.13,74280.8,6.51,-18.41,-18.73,0,*7C
1500588087.61,35434,23.13,74278.0,6.51,-18.45,-18.89,0,*7A
1500588088.84,35435,23.13,74276.5,6.51,-18.45,-18.73,0,*7E
1500588090.09,35436,23.13,74280.3,6.51,-18.45,-18.89,0,*78
1500588091.32,35437,23.13,74278.0,6.51,-18.45,-18.73,0,*7C
1500588092.51,35438,23.13,74280.3,6.49,-18.45,-18.83,0,*75
1500588093.76,35439,23.13,74278.0,6.51,-18.55,-18.73,0,*73
1500588094.99,35440,23.13,74280.3,6.49,-18.49,-18.93,0,*77
1500588096.18,35441,23.13,74280.0,6.49,-18.49,-18.79,0,*72
1500588097.41,35442,23.13,74282.8,6.51,-18.21,-18.65,0,*7B
1500588098.62,35443,23.13,74280.8,6.49,-18.17,-18.59,0,*79
1500588099.85,35444,23.13,74280.5,6.49,-18.07,-18.35,0,*75
1500588101.1,35445,23.13,74280.3,6.51,-18.25,-18.59,0,*77
1500588102.34,35446,23.13,74282.8,6.49,-18.35,-18.59,0,*7C
1500588103.59,35447,23.13,74282.8,6.51,-18.17,-18.55,0,*78
1500588104.83,35448,23.13,74280.5,6.51,-18.25,-18.59,0,*7A
1500588106.05,35449,23.13,74280.5,6.49,-18.21,-18.59,0,*76
1500588107.25,35450,23.13,74280.5,6.49,-18.21,-18.65,0,*71
1500588108.44,35451,23.13,74282.3,6.49,-18.49,-18.79,0,*73
1500588109.64,35452,23.13,74280.3,6.49,-18.45,-18.69,0,*7D
1500588110.86,35453,23.13,74280.3,6.49,-18.31,-18.79,0,*7E
1500588112.08,35454,23.13,74282.8,6.49,-18.17,-18.59,0,*7F
1500588113.28,35455,23.13,74280.0,6.49,-18.07,-18.49,0,*7E
1500588114.51,35456,23.13,74276.5,6.51,-17.87,-18.41,0,*7B
1500588115.73,35457,23.13,74282.0,6.51,-18.25,-18.65,0,*7B
1500588116.96,35458,23.13,74280.5,6.49,-18.35,-18.69,0,*70
1500588118.21,35459,23.13,74278.8,6.49,-18.31,-18.59,0,*76
1500588119.43,35460,23.13,74280.5,6.51,-18.25,-18.73,0,*78
1500588120.66,35461,23.13,74276.5,6.49,-18.35,-18.69,0,*7A
1500588121.89,35462,23.13,74280.3,6.49,-18.31,-18.65,0,*71
1500588123.09,35463,23.13,74282.8,6.49,-18.45,-18.65,0,*73
1500588124.32,35464,23.13,74276.8,6.49,-18.31,-18.69,0,*7B
1500588125.51,35465,23.13,74280.3,6.49,-18.45,-18.83,0,*7D
1500588126.71,35466,23.13,74282.5,6.49,-18.45,-18.79,0,*7B
1500588127.95,35467,23.13,74280.3,6.51,-18.17,-18.59,0,*76
1500588129.2,35468,23.13,74278.5,6.51,-18.01,-18.45,0,*73
1500588130.41,35469,23.13,74278.8,6.49,-18.07,-18.49,0,*71
1500588131.61,35470,23.13,74280.8,6.49,-18.07,-18.49,0,*79
1500588132.85,35471,23.13,74280.8,6.51,-18.25,-18.59,0,*70
1500588134.08,35472,23.13,74276.0,6.49,-18.31,-18.65,0,*70
1500588135.28,35473,23.13,74278.8,6.49,-18.21,-18.65,0,*70
1500588136.51,35474,23.13,74278.3,6.49,-18.35,-18.65,0,*72
1500588137.73,35475,23.13,74282.8,6.49,-18.35,-18.65,0,*73
1500588138.96,35476,23.13,74280.5,6.49,-18.35,-18.65,0,*70
1500588140.19,35477,23.13,74282.3,6.49,-18.35,-18.65,0,*71
1500588141.44,35478,23.13,74282.0,6.51,-18.01,-18.45,0,*72
1500588142.66,35479,23.13,74276.8,6.49,-18.01,-18.45,0,*7A
1500588143.88,35480,23.13,74282.8,6.49,-18.17,-18.59,0,*76
1500588145.12,35481,23.13,74282.5,6.51,-18.17,-18.59,0,*7E
1500588146.38,35482,23.13,74278.8,6.49,-18.01,-18.35,0,*79
1500588147.6,35483,23.13,74282.0,6.51,-17.83,-18.17,0,*74
1500588148.83,35484,23.13,74280.0,6.49,-18.01,-18.49,0,*74
1500588150.03,35485,23.13,74282.8,6.49,-18.07,-18.49,0,*73
1500588151.28,35486,23.13,74278.5,6.49,-17.93,-18.35,0,*79
1500588152.53,35487,23.13,74278.3,6.51,-17.97,-18.41,0,*76
1500588153.82,35488,23.13,74278.0,6.51,-17.97,-18.31,0,*7E
1500588155.04,35489,23.13,74276.3,6.51,-18.11,-18.45,0,*7D
1500588156.29,35490,23.13,74278.8,6.51,-18.01,-18.45,0,*74
1500588157.52,35491,23.13,74278.5,6.51,-18.11,-18.45,0,*74
1500588158.8,35492,23.13,74276.3,6.51,-18.31,-18.55,0,*74
1500588160.06,35493,23.13,74278.8,6.51,-18.31,-18.65,0,*76
1500588161.31,35494,23.13,74278.8,6.51,-18.31,-18.65,0,*71
1500588162.51,35495,23.13,74276.8,6.49,-18.45,-18.79,0,*77
1500588163.76,35496,23.13,74278.5,6.51,-18.55,-18.73,0,*76
1500588164.98,35497,23.13,74278.8,6.49,-18.59,-18.83,0,*7D
1500588166.21,35498,23.13,74280.0,6.51,-18.45,-18.73,0,*79
1500588167.44,35499,23.13,74276.3,6.51,-18.41,-18.73,0,*7C
1500588168.72,35500,23.13,74282.8,6.51,-18.31,-18.55,0,*7E
1500588169.93,35501,23.13,74276.3,6.49,-18.21,-18.59,0,*7B
1500588171.16,35502,23.13,74278.0,6.51,-18.11,-18.45,0,*7F
1500588172.41,35503,23.13,74276.8,6.51,-18.17,-18.55,0,*79
1500588173.66,35504,23.13,74278.5,6.51,-18.31,-18.65,0,*79
1500588174.92,35505,23.13,74282.5,6.51,-18.31,-18.65,0,*78
1500588176.12,35506,23.13,74282.0,6.49,-18.45,-18.69,0,*7D
1500588177.32,35507,23.13,74282.0,6.49,-18.49,-18.83,0,*74
1500588178.59,35508,23.13,74282.0,6.51,-18.55,-18.89,0,*75
1500588179.78,35509,23.13,74276.0,6.49,-18.49,-18.79,0,*7F
1500588181.04,35510,23.13,74282.8,6.51,-18.31,-18.65,0,*7C
1500588182.26,35511,23.13,74282.5,6.49,-18.35,-18.69,0,*7C
1500588183.51,35512,23.13,74280.0,6.49,-18.31,-18.59,0,*78
1500588184.73,35513,23.13,74282.5,6.47,-18.25,-18.65,0,*7D
1500588185.96,35514,23.13,74282.0,6.47,-18.49,-18.73,0,*77
1500588187.18,35515,23.13,74282.5,6.47,-18.21,-18.65,0,*7F
1500588188.43,35516,23.13,74282.3,6.47,-17.97,-18.41,0,*78
1500588189.68,35517,23.13,74282.3,6.49,-18.01,-18.35,0,*74
1500588190.94,35518,23.13,74282.3,6.51,-17.87,-18.31,0,*77
1500588192.19,35519,23.13,74280.5,6.49,-18.01,-18.35,0,*7A
1500588193.42,35520,23.13,74282.5,6.51,-18.11,-18.45,0,*7F
1500588194.64,35521,23.13,74278.0,6.51,-17.87,-18.25,0,*78
1500588195.87,35522,23.13,74278.5,6.49,-17.87,-18.35,0,*73
1500588197.15,35523,23.13,74278.3,6.51,-17.97,-18.35,0,*7A
1500588198.41,35524,23.13,74278.5,6.51,-18.31,-18.65,0,*7B
1500588199.67,35525,23.13,74278.3,6.51,-18.31,-18.65,0,*7A
1500588200.91,35526,23.13,74282.0,6.51,-18.25,-18.59,0,*73
1500588202.16,35527,23.13,74280.8,6.51,-18.25,-18.55,0,*7E
1500588203.38,35528,23.13,74282.5,6.51,-18.17,-18.45,0,*71
1500588204.63,35529,23.13,74276.8,6.51,-18.17,-18.59,0,*7D
1500588205.88,35530,23.13,74282.5,6.51,-18.17,-18.55,0,*79
1500588207.08,35531,23.13,74280.5,6.49,-18.07,-18.49,0,*7D
1500588208.31,35532,23.13,74278.8,6.49,-18.31,-18.65,0,*75
1500588209.55,35533,23.13,74282.3,6.49,-18.31,-18.59,0,*7B
1500588210.78,35534,23.13,74278.8,6.51,-18.41,-18.65,0,*7D
1500588212.01,35535,23.13,74282.5,6.51,-18.41,-18.65,0,*7C
1500588213.21,35536,23.13,74282.0,6.49,-18.49,-18.73,0,*79
1500588214.41,35537,23.13,74282.5,6.49,-18.45,-18.79,0,*7E
1500588215.6,35538,23.13,74282.3,6.49,-18.49,-18.79,0,*7D
1500588216.8,35539,23.13,74282.3,6.49,-18.21,-18.65,0,*7F
1500588218.02,35540,23.13,74280.3,6.49,-18.17,-18.59,0,*7B
1500588219.26,35541,23.13,74284.5,6.49,-18.31,-18.59,0,*7E
1500588220.49,35542,23.13,74278.8,6.49,-18.35,-18.65,0,*76
1500588221.74,35543,23.13,74282.3,6.49,-18.31,-18.59,0,*7C
1500588222.95,35544,23.13,74280.3,6.49,-18.17,-18.59,0,*7F
1500588224.2,35545,23.13,74280.0,6.51,-18.11,-18.55,0,*7D
1500588225.4,35546,23.13,74282.0,6.49,-18.45,-18.65,0,*75
1500588226.62,35547,23.13,74282.5,6.49,-18.21,-18.59,0,*79
1500588227.88,35548,23.13,74282.8,6.51,-17.87,-18.31,0,*72
1500588229.1,35549,23.13,74282.3,6.49,-18.01,-18.21,0,*7A
1500588230.3,35550,23.13,74278.8,6.49,-18.07,-18.49,0,*7A
1500588231.55,35551,23.13,74278.8,6.51,-18.25,-18.59,0,*73
1500588232.8,35552,23.13,74278.8,6.51,-18.31,-18.73,0,*7D
1500588234.05,35553,23.13,74276.8,6.51,-18.25,-18.59,0,*71
1500588235.25,35554,23.13,74280.0,6.49,-18.45,-18.69,0,*7A
1500588236.48,35555,23.13,74280.0,6.49,-18.31,-18.65,0,*74
1500588237.69,35556,23.13,74286.0,6.49,-18.59,-18.79,0,*74
1500588238.92,35557,23.13,74282.0,6.51,-18.45,-18.73,0,*7B
1500588240.15,35558,23.13,74280.5,6.49,-18.59,-18.69,0,*7B
1500588241.35,35559,23.13,74282.8,6.45,-18.41,-18.73,0,*74
1500588242.57,35560,23.13,74282.5,6.49,-18.59,-18.79,0,*71
1500588243.79,35561,23.13,74282.0,6.47,-18.69,-18.99,0,*73
1500588245.0,35562,23.13,74282.8,6.47,-18.49,-18.83,0,*79
1500588246.21,35563,23.13,74276.8,6.45,-18.41,-18.73,0,*7D
1500588247.43,35564,23.13,74282.0,6.47,-18.25,-18.65,0,*7D
1500588248.67,35565,23.13,74282.0,6.47,-18.55,-18.83,0,*73
1500588249.89,35566,23.13,74278.3,6.47,-18.49,-18.83,0,*7D
1500588251.11,35567,23.13,74280.5,6.47,-18.49,-18.83,0,*7C
1500588252.33,35568,23.13,74276.3,6.45,-18.55,-18.73,0,*73
1500588253.58,35569,23.13,74282.8,6.47,-18.07,-18.35,0,*75
1500588254.8,35570,23.13,74280.5,6.47,-18.07,-18.41,0,*7E
1500588256.02,35571,23.13,74282.3,6.45,-18.21,-18.55,0,*7C
1500588257.24,35572,23.13,74278.8,6.45,-18.11,-18.55,0,*7C
1500588258.48,35573,23.13,74278.5,6.47,-18.21,-18.55,0,*7C
1500588259.73,35574,23.13,74278.5,6.47,-18.35,-18.69,0,*71
1500588260.93,35575,23.13,74282.8,6.45,-18.21,-18.49,0,*75
1500588262.18,35576,23.13,74278.5,6.47,-18.21,-18.55,0,*79
1500588263.4,35577,23.13,74280.3,6.47,-18.25,-18.69,0,*73
1500588264.63,35578,23.13,74278.8,6.47,-18.41,-18.69,0,*7E
1500588265.87,35579,23.13,74278.8,6.47,-18.35,-18.65,0,*70
1500588267.1,35580,23.13,74278.0,6.45,-18.35,-18.65,0,*74
1500588268.32,35581,23.13,74280.5,6.45,-18.35,-18.69,0,*79
1500588269.57,35582,23.13,74276.5,6.47,-18.35,-18.65,0,*74
1500588270.82,35583,23.13,74282.0,6.47,-18.35,-18.65,0,*75
1500588272.04,35584,23.13,74282.3,6.47,-18.25,-18.65,0,*73
1500588273.29,35585,23.13,74280.3,6.47,-18.35,-18.65,0,*73
1500588274.54,35586,23.13,74280.8,6.47,-18.35,-18.65,0,*70
1500588275.77,35587,23.13,74278.8,6.47,-18.25,-18.65,0,*70
1500588277.02,35588,23.06,74276.8,6.47,-18.35,-18.73,0,*79
1500588278.21,35589,23.13,74276.3,6.45,-18.49,-18.83,0,*7E
1500588279.46,35590,23.13,74278.8,6.47,-18.35,-18.65,0,*77
1500588280.69,35591,23.13,74280.5,6.47,-18.41,-18.69,0,*79
1500588281.94,35592,23.13,74282.3,6.47,-18.35,-18.73,0,*72
1500588283.14,35593,23.13,74280.5,6.45,-18.41,-18.69,0,*79
1500588284.34,35594,23.13,74276.3,6.45,-18.41,-18.69,0,*7E
1500588285.53,35595,23.13,74276.3,6.45,-18.49,-18.69,0,*77
1500588286.76,35596,23.13,74282.8,6.47,-18.11,-18.65,0,*77
1500588287.95,35597,23.13,74280.3,6.45,-18.21,-18.65,0,*77
1500588289.17,35598,23.13,74278.8,6.45,-18.21,-18.55,0,*7B
1500588290.39,35599,23.13,74280.0,6.45,-18.21,-18.55,0,*7A
1500588291.61,35600,23.13,74282.0,6.47,-18.25,-18.65,0,*7C
1500588292.81,35601,23.13,74278.8,6.45,-18.25,-18.65,0,*7F
1500588294.03,35602,23.13,74280.5,6.45,-18.11,-18.35,0,*7E
1500588295.28,35603,23.06,74274.3,6.47,-18.21,-18.55,0,*78
1500588296.5,35604,23.06,74276.0,6.45,-18.25,-18.55,0,*79
1500588297.75,35605,23.13,74282.8,6.47,-18.07,-18.35,0,*7C
1500588298.99,35606,23.13,74282.3,6.47,-17.79,-18.21,0,*7C
1500588300.24,35607,23.13,74282.5,6.47,-17.97,-18.21,0,*7D
1500588301.51,35608,23.13,74282.8,6.47,-17.63,-17.93,0,*7F
1500588302.76,35609,23.13,74278.3,6.47,-17.97,-18.25,0,*77
1500588304.03,35610,23.13,74276.5,6.47,-17.63,-17.97,0,*72
1500588305.27,35611,23.06,74274.0,6.49,-17.63,-17.93,0,*79
1500588306.47,35612,23.06,74278.8,6.49,-17.87,-18.17,0,*73
1500588307.69,35613,23.13,74282.8,6.47,-18.07,-18.41,0,*78
1500588308.92,35614,23.13,74282.5,6.49,-17.41,-17.73,0,*72
1500588310.14,35615,23.13,74282.8,6.49,-17.73,-18.01,0,*78
1500588311.39,35616,23.13,74282.5,6.49,-17.79,-18.01,0,*71
1500588312.64,35617,23.13,74278.0,6.51,-18.01,-18.45,0,*79
1500588313.87,35618,23.13,74280.8,6.51,-17.83,-18.25,0,*75
1500588315.09,35619,23.06,74272.0,6.49,-17.41,-17.73,0,*7F
1500588316.37,35620,23.06,74272.8,6.51,-17.25,-17.59,0,*76
1500588317.63,35621,23.13,74274.5,6.49,-17.17,-17.55,0,*73
1500588318.9,35622,23.06,74264.8,6.51,-17.11,-17.25,0,*78
1500588320.15,35623,23.06,74264.5,6.51,-16.93,-17.25,0,*72
1500588321.43,35624,23.13,74268.0,6.51,-17.25,-17.59,0,*72
1500588322.68,35625,23.13,74270.0,6.53,-17.55,-17.83,0,*71
1500588323.93,35626,23.13,74272.5,6.53,-17.55,-17.73,0,*7D
1500588325.16,35627,23.13,74272.3,6.57,-16.93,-17.35,0,*71
1500588326.39,35628,23.13,74274.8,6.57,-17.35,-17.49,0,*78
1500588327.64,35629,23.13,74272.0,6.57,-17.55,-17.69,0,*7D
1500588328.87,35630,23.13,74276.0,6.59,-17.17,-17.49,0,*7F
1500588330.13,35631,23.06,74274.3,6.59,-17.45,-17.59,0,*78
1500588331.39,35632,23.13,74274.0,6.59,-17.41,-17.63,0,*76
1500588332.65,35633,23.06,74272.8,6.59,-17.11,-17.59,0,*7B
1500588333.87,35634,23.06,74276.0,6.59,-17.31,-17.63,0,*77
1500588335.1,35635,23.13,74276.5,6.59,-17.45,-17.73,0,*74
1500588336.35,35636,23.13,74276.5,6.61,-17.49,-17.79,0,*7A
1500588337.56,35637,23.13,74276.8,6.59,-17.87,-18.21,0,*70
1500588338.79,35638,23.13,74276.3,6.61,-17.49,-17.87,0,*75
1500588340.05,35639,23.13,74278.3,6.61,-17.45,-17.87,0,*78
1500588341.28,35640,23.13,74276.3,6.61,-17.87,-18.07,0,*7F
1500588342.51,35641,23.13,74282.3,6.59,-17.79,-18.07,0,*74
1500588343.79,35642,23.06,74274.8,6.61,-17.93,-18.31,0,*7D
1500588345.02,35643,23.13,74278.5,6.63,-18.01,-18.41,0,*7D
1500588346.27,35644,23.06,74276.8,6.61,-18.07,-18.31,0,*79
1500588347.5,35645,23.13,74278.8,6.61,-17.87,-18.07,0,*7A
1500588348.77,35646,23.06,74278.5,6.61,-17.79,-17.93,0,*7A
1500588350.0,35647,23.13,74282.3,6.61,-17.87,-18.07,0,*78
1500588351.23,35648,23.06,74276.8,6.61,-17.87,-18.17,0,*76
1500588352.51,35649,23.06,74274.0,6.61,-18.01,-18.35,0,*76
1500588353.76,35650,23.06,74278.5,6.61,-18.07,-18.35,0,*78
1500588355.01,35651,23.13,74278.0,6.61,-18.01,-18.17,0,*7F
1500588356.24,35652,23.13,74276.8,6.61,-17.87,-18.07,0,*7C
1500588357.44,35653,23.13,74276.8,6.63,-17.83,-18.17,0,*7A
1500588358.69,35654,23.06,74272.5,6.61,-17.93,-18.17,0,*7E
1500588359.89,35655,23.06,74276.0,6.63,-17.87,-18.17,0,*78
1500588361.14,35656,23.06,74272.5,6.61,-18.07,-18.35,0,*7E
1500588362.39,35657,23.13,74276.8,6.61,-17.93,-18.21,0,*78
1500588363.62,35658,23.13,74276.8,6.63,-17.73,-18.01,0,*79
1500588364.84,35659,23.13,74276.3,6.63,-17.59,-17.73,0,*7A
1500588366.09,35660,23.13,74278.5,6.61,-18.07,-18.35,0,*7B
1500588367.35,35661,23.13,74280.5,6.61,-18.07,-18.31,0,*7E
1500588368.6,35662,23.06,74278.0,6.65,-17.97,-18.25,0,*7A
1500588369.82,35663,23.13,74280.5,6.63,-17.97,-18.25,0,*7D
1500588371.08,35664,23.13,74278.3,6.61,-18.07,-18.31,0,*7B
1500588372.35,35665,23.13,74278.5,6.61,-17.79,-18.01,0,*7F
1500588373.61,35666,23.13,74276.3,6.61,-18.07,-18.35,0,*7D
1500588374.83,35667,23.13,74276.0,6.61,-17.87,-18.17,0,*7B
1500588376.06,35668,23.13,74278.8,6.63,-17.59,-17.87,0,*73
1500588377.27,35669,23.13,74282.5,6.63,-17.35,-17.69,0,*78
1500588378.47,35670,23.13,74272.0,6.63,-17.69,-17.87,0,*79
1500588379.7,35671,23.06,74272.3,6.63,-17.55,-17.83,0,*73
1500588380.93,35672,23.06,74272.0,6.63,-17.59,-17.87,0,*78
1500588382.18,35673,23.13,74274.5,6.65,-17.69,-17.97,0,*7D
1500588383.37,35674,23.13,74278.8,6.63,-18.11,-18.25,0,*7A
1500588384.61,35675,23.13,74276.0,6.65,-17.83,-18.11,0,*7E
1500588385.84,35676,23.06,74272.8,6.63,-17.59,-17.83,0,*78
1500588387.03,35677,23.06,74276.8,6.63,-17.87,-18.17,0,*78
1500588388.24,35678,23.06,74274.8,6.63,-17.83,-18.11,0,*75
1500588389.46,35679,23.13,74276.3,6.65,-17.87,-18.25,0,*71
1500588390.68,35680,23.13,74276.0,6.65,-17.87,-18.25,0,*77
1500588391.93,35681,23.13,74276.3,6.65,-17.97,-18.17,0,*76
1500588393.19,35682,23.06,74276.0,6.63,-17.97,-18.31,0,*77
1500588394.41,35683,23.13,74278.0,6.65,-18.11,-18.25,0,*74
1500588395.69,35684,23.13,74282.0,6.65,-18.01,-18.31,0,*77
1500588396.94,35685,23.13,74274.5,6.65,-17.83,-18.01,0,*70
1500588398.18,35686,23.06,74272.5,6.65,-18.01,-18.25,0,*70
1500588399.4,35687,23.13,74278.3,6.63,-17.97,-18.25,0,*77
1500588400.6,35688,23.06,74276.8,6.63,-17.87,-18.17,0,*78
1500588401.86,35689,23.06,74278.3,6.63,-17.97,-18.31,0,*7C
1500588403.11,35690,23.06,74278.5,6.65,-17.69,-17.97,0,*70
1500588404.34,35691,23.06,74272.3,6.65,-17.87,-18.17,0,*76
1500588405.59,35692,23.13,74280.3,6.65,-18.11,-18.31,0,*71
1500588406.84,35693,23.13,74276.8,6.63,-17.59,-18.01,0,*76
1500588408.09,35694,23.06,74278.3,6.65,-17.83,-18.01,0,*70
1500588409.32,35695,23.06,74276.8,6.65,-17.83,-18.11,0,*70
1500588410.6,35696,23.13,74278.0,6.65,-17.97,-18.31,0,*74
1500588411.85,35697,23.06,74274.3,6.65,-17.73,-18.01,0,*7C
1500588413.11,35698,23.13,74276.8,6.65,-17.45,-17.73,0,*7C
1500588414.35,35699,23.06,74278.5,6.65,-17.73,-18.01,0,*72
1500588415.6,35700,23.06,74278.0,6.65,-17.69,-17.97,0,*78
1500588416.8,35701,23.06,74276.8,6.67,-18.07,-18.25,0,*7A
1500588418.01,35702,23.06,74276.0,6.67,-17.83,-18.07,0,*7A
1500588419.24,35703,23.06,74278.3,6.67,-17.55,-17.69,0,*77
1500588420.49,35704,23.13,74274.8,6.69,-17.73,-18.01,0,*7B
1500588421.71,35705,23.06,74272.8,6.67,-17.69,-17.79,0,*7F
1500588422.94,35706,23.13,74276.3,6.69,-17.73,-17.87,0,*78
1500588424.16,35707,23.06,74274.3,6.69,-17.87,-18.21,0,*71
1500588425.37,35708,23.06,74274.3,6.67,-17.83,-18.07,0,*70
1500588426.64,35709,23.06,74272.5,6.69,-17.63,-17.93,0,*73
1500588427.87,35710,23.13,74278.5,6.69,-17.73,-17.87,0,*7F
1500588429.09,35711,23.06,74272.0,6.69,-17.87,-18.07,0,*72
1500588430.36,35712,23.06,74274.0,6.69,-17.63,-17.93,0,*79
1500588431.6,35713,23.13,74276.8,6.69,-17.93,-18.17,0,*74
1500588432.86,35714,23.06,74274.5,6.69,-17.59,-17.83,0,*77
1500588434.12,35715,23.06,74276.0,6.69,-17.79,-17.93,0,*75
1500588435.39,35716,23.06,74272.8,6.69,-17.79,-18.01,0,*72
1500588436.64,35717,23.06,74274.3,6.69,-17.35,-17.63,0,*70
1500588437.86,35718,23.06,74274.5,6.71,-17.79,-18.17,0,*72
1500588439.09,35719,23.06,74274.3,6.71,-17.93,-18.21,0,*72
1500588440.33,35720,23.06,74274.8,6.71,-17.59,-17.79,0,*7C
1500588441.56,35721,23.06,74276.0,6.71,-17.73,-17.93,0,*71
1500588442.78,35722,23.06,74276.5,6.71,-17.87,-18.01,0,*7D
1500588443.98,35723,23.06,74278.5,6.71,-17.49,-17.73,0,*74
1500588445.23,35724,23.06,74278.3,6.71,-17.79,-18.01,0,*7A
1500588446.47,35725,23.06,74276.0,6.71,-17.79,-17.93,0,*7F
1500588447.7,35726,23.06,74272.3,6.71,-18.01,-18.21,0,*7A
1500588448.95,35727,23.06,74276.8,6.73,-17.73,-18.01,0,*71
1500588450.17,35728,23.06,74276.0,6.73,-17.73,-17.83,0,*7B
1500588451.4,35729,23.06,74276.0,6.71,-18.01,-18.21,0,*75
1500588452.6,35730,23.06,74278.0,6.71,-17.87,-18.07,0,*78
1500588453.85,35731,23.06,74278.5,6.73,-17.87,-18.01,0,*7D
1500588455.1,35732,23.06,74280.8,6.71,-17.79,-17.93,0,*79
1500588456.34,35733,23.06,74278.0,6.71,-17.79,-17.93,0,*78
1500588457.57,35734,23.06,74276.3,6.73,-17.73,-17.83,0,*76
1500588458.8,35735,23.06,74278.3,6.73,-17.73,-17.87,0,*73
1500588460.02,35736,23.06,74274.8,6.73,-17.73,-17.83,0,*74
1500588461.28,35737,23.06,74276.3,6.73,-17.83,-18.01,0,*7F
1500588462.53,35738,23.13,74276.3,6.73,-17.87,-17.97,0,*74
1500588463.78,35739,23.06,74276.8,6.75,-18.01,-18.01,0,*72
1500588465.01,35740,23.06,74276.3,6.73,-17.83,-17.87,0,*7E
1500588466.23,35741,23.06,74276.3,6.73,-17.69,-17.73,0,*70
1500588467.48,35742,23.06,74276.3,6.73,-17.59,-17.73,0,*70
1500588468.72,35743,23.06,74276.3,6.73,-17.31,-17.55,0,*7B
1500588469.98,35744,23.06,74276.3,6.73,-17.73,-17.97,0,*74
1500588471.2,35745,23.06,74276.0,6.75,-17.87,-18.01,0,*78
1500588472.41,35746,23.06,74278.8,6.75,-17.87,-18.11,0,*7A
1500588473.63,35747,23.06,74276.8,6.73,-17.69,-17.73,0,*76
1500588474.88,35748,23.06,74274.0,6.73,-17.69,-17.59,0,*71
1500588476.11,35749,23.06,74274.3,6.73,-17.69,-17.83,0,*77
1500588477.35,35750,23.06,74278.3,6.79,-17.79,-17.79,0,*71
1500588478.57,35751,23.06,74272.8,6.79,-17.79,-17.83,0,*75
1500588479.77,35752,23.06,74274.0,6.75,-17.73,-17.83,0,*70
1500588481.01,35753,23.06,74272.5,6.79,-17.59,-17.63,0,*7B
1500588482.21,35754,23.06,74270.3,6.75,-17.69,-17.73,0,*72
1500588483.43,35755,23.06,74272.5,6.79,-17.63,-17.69,0,*7E
1500588484.64,35756,23.06,74270.3,6.79,-17.63,-17.69,0,*7D
1500588485.86,35757,23.06,74270.0,6.79,-17.79,-17.83,0,*73
1500588487.11,35758,23.06,74270.3,6.79,-17.93,-17.97,0,*7D
1500588488.35,35759,23.06,74272.5,6.81,-17.73,-17.93,0,*71
1500588489.58,35760,23.06,74272.0,6.75,-17.87,-17.97,0,*7F
1500588490.8,35761,23.06,74272.5,6.79,-17.63,-17.83,0,*7D
1500588492.05,35762,23.06,74276.3,6.79,-17.79,-17.97,0,*70
1500588493.27,35763,23.06,74272.5,6.79,-17.93,-18.07,0,*73
1500588494.49,35764,23.06,74274.5,6.79,-17.83,-17.97,0,*73
1500588495.72,35765,23.06,74272.3,6.79,-17.97,-18.21,0,*75
1500588496.9,35766,23.06,74278.0,6.79,-18.11,-18.25,0,*73
1500588498.1,35767,23.06,74276.5,6.75,-18.07,-18.25,0,*79
1500588499.35,35768,23.06,74276.3,6.81,-17.87,-18.01,0,*7C
1500588500.59,35769,23.06,74276.0,6.81,-17.63,-17.87,0,*76
1500588501.84,35770,23.06,74276.8,6.79,-17.79,-17.97,0,*73